Regional Weather Roundup
Issued by NWS

Home | Current Version | Previous Version | Text Only | Print | Product List | Glossary Off
Versions: 1 2 3 4 5 6 7 8 9 10 11 12 13 14 15 16 17 18 19 20 21 22 23 24 25 26 27 28 29 30 31 32 33 34 35 36 37 38 39 40 41 42 43 44 45 46 47 48 49 50

882
ASUS43 KBIS 232110
RWRND

NORTH DAKOTA REGIONAL WEATHER ROUNDUP
NATIONAL WEATHER SERVICE BISMARCK ND
300 PM CST MON JAN 23 2017

NOTE: "FAIR" INDICATES FEW OR NO CLOUDS BELOW 12,000 FEET WITH NO
SIGNIFICANT WEATHER AND/OR OBSTRUCTIONS TO VISIBILITY.


NDZ001>003-009>011-017-232200-
NORTHWEST NORTH DAKOTA

CITY           SKY/WX    TMP DP  RH WIND       PRES   REMARKS
WILLISTON      LGT SNOW  24  20  84 N9        29.77S FOG     WCI  14
MINOT          CLOUDY    27  20  75 W17       29.75S WCI  14
$$

NDZ018>021-031>035-040>046-232200-
SOUTHWEST NORTH DAKOTA

CITY           SKY/WX    TMP DP  RH WIND       PRES   REMARKS
BISMARCK       CLOUDY    31  23  72 W7        29.77F
DICKINSON      CLOUDY    23  20  88 SE7       29.70S WCI  15
GARRISON         N/A     26  21  81 N10       29.74F WCI  16
HETTINGER ARPT FOG       24  22  91 NE7       29.70F VSB 1/2 WCI  16
$$

NDZ004>008-012>016-024-026-027-054-232200-
NORTHEAST NORTH DAKOTA

CITY           SKY/WX    TMP DP  RH WIND       PRES   REMARKS
GRAND FORKS    CLOUDY    32  23  69 W13       29.78S
GRND FRKS AFB  CLOUDY    30  22  73 NW13      29.78S
DEVILS LAKE    CLOUDY    26  22  84 W15       29.74F WCI  14
$$

NDZ022-023-025-028>030-036>039-047>053-232200-
SOUTHEAST NORTH DAKOTA

CITY           SKY/WX    TMP DP  RH WIND       PRES   REMARKS
FARGO          CLOUDY    35  26  69 W5        29.80R
JAMESTOWN      CLOUDY    29  23  78 W10       29.77R WCI  20
$$





USA.gov is the U.S. government's official web portal to all federal, state and local government web resources and services.